• In Hungary
  • List of Countries
  • For 7 days
  • Water Temperature
  • Satellite Maps
  • Weather Map
  • News
  • Weather Widgets
  • user-avatar
    Login

    Hourly Weather Niedzwiadek

    Today, 16 July, Monday

    Time Temperature Precipitation Wind Pressure Humidity
    00:00 +17°C° 0.1 mm 3 mps 740 mmHg 92%
    01:00 +17°C° 0.1 mm 3 mps 740 mmHg 93%
    02:00 +16°C° 0 mm 3 mps 740 mmHg 93%
    03:00 +16°C° 0 mm 3 mps 739 mmHg 94%
    04:00 +16°C° 0 mm 3 mps 739 mmHg 94%
    05:00 +17°C° 0.2 mm 3 mps 739 mmHg 91%
    06:00 +18°C° 0.2 mm 4 mps 739 mmHg 87%
    07:00 +19°C° 0.2 mm 4 mps 739 mmHg 84%
    08:00 +20°C° 0.1 mm 4 mps 739 mmHg 78%
    09:00 +22°C° 0.1 mm 5 mps 739 mmHg 73%
    10:00 +23°C° 0.1 mm 5 mps 739 mmHg 68%
    11:00 +23°C° 0.5 mm 5 mps 738 mmHg 68%
    12:00 +25°C° 0.5 mm 5 mps 738 mmHg 67%
    13:00 +25°C° 0.5 mm 5 mps 738 mmHg 67%
    14:00 +25°C° 0.7 mm 5 mps 737 mmHg 68%
    15:00 +25°C° 0.7 mm 5 mps 737 mmHg 69%
    16:00 +25°C° 0.7 mm 5 mps 737 mmHg 71%
    17:00 +22°C° 0.5 mm 4 mps 737 mmHg 76%
    18:00 +21°C° 0.5 mm 4 mps 737 mmHg 81%
    19:00 +20°C° 0.5 mm 3 mps 736 mmHg 86%
    20:00 +19°C° 0 mm 3 mps 736 mmHg 89%
    21:00 +18°C° 0 mm 3 mps 736 mmHg 92%
    22:00 +18°C° 0 mm 3 mps 736 mmHg 95%
    23:00 +17°C° 0.1 mm 3 mps 736 mmHg 96%

    Tomorrow, 17 July, Tuesday

    Time Temperature Precipitation Wind Pressure Humidity
    00:00 +17°C° 0.1 mm 3 mps 736 mmHg 96%
    01:00 +17°C° 0.1 mm 3 mps 735 mmHg 97%
    02:00 +17°C° 0.7 mm 3 mps 735 mmHg 97%
    03:00 +17°C° 0.7 mm 4 mps 735 mmHg 97%
    04:00 +17°C° 0.7 mm 4 mps 735 mmHg 97%
    05:00 +18°C° 0.8 mm 4 mps 734 mmHg 96%
    06:00 +18°C° 0.8 mm 4 mps 734 mmHg 95%
    07:00 +18°C° 0.8 mm 4 mps 734 mmHg 94%
    08:00 +18°C° 0.7 mm 4 mps 734 mmHg 94%
    09:00 +18°C° 0.7 mm 4 mps 734 mmHg 93%
    10:00 +19°C° 0.7 mm 5 mps 734 mmHg 92%
    11:00 +19°C° 0.2 mm 5 mps 734 mmHg 91%
    12:00 +19°C° 0.2 mm 5 mps 734 mmHg 90%
    13:00 +20°C° 0.2 mm 5 mps 734 mmHg 88%
    14:00 +20°C° 0.2 mm 5 mps 734 mmHg 88%
    15:00 +20°C° 0.2 mm 5 mps 734 mmHg 87%
    16:00 +20°C° 0.2 mm 5 mps 734 mmHg 86%
    17:00 +20°C° 0.2 mm 5 mps 734 mmHg 88%
    18:00 +20°C° 0.2 mm 4 mps 734 mmHg 90%
    19:00 +19°C° 0.2 mm 4 mps 734 mmHg 91%
    20:00 +19°C° 0.2 mm 4 mps 734 mmHg 93%
    21:00 +19°C° 0.2 mm 4 mps 734 mmHg 94%
    22:00 +19°C° 0.2 mm 4 mps 734 mmHg 96%
    23:00 +19°C° 2.5 mm 4 mps 734 mmHg 96%

    Day after tomorrow, 18 July, Wednesday

    Time Temperature Precipitation Wind Pressure Humidity
    00:00 +19°C° 2.5 mm 5 mps 734 mmHg 96%
    01:00 +19°C° 2.5 mm 5 mps 733 mmHg 96%
    02:00 +19°C° 2.8 mm 5 mps 733 mmHg 96%
    03:00 +19°C° 2.8 mm 5 mps 733 mmHg 96%
    04:00 +19°C° 2.8 mm 5 mps 733 mmHg 96%
    05:00 +19°C° 1.6 mm 5 mps 733 mmHg 96%
    06:00 +20°C° 1.6 mm 5 mps 733 mmHg 96%
    07:00 +20°C° 1.6 mm 5 mps 734 mmHg 96%
    08:00 +20°C° 0.8 mm 5 mps 734 mmHg 95%
    09:00 +20°C° 0.8 mm 5 mps 734 mmHg 94%
    10:00 +21°C° 0.8 mm 5 mps 734 mmHg 93%
    11:00 +21°C° 0.4 mm 5 mps 734 mmHg 92%
    12:00 +21°C° 0.4 mm 5 mps 734 mmHg 91%
    13:00 +22°C° 0.4 mm 5 mps 735 mmHg 89%
    14:00 +22°C° 0.1 mm 6 mps 735 mmHg 88%
    15:00 +22°C° 0.1 mm 6 mps 735 mmHg 87%
    16:00 +22°C° 0.1 mm 6 mps 735 mmHg 86%
    17:00 +22°C° 0.1 mm 6 mps 736 mmHg 88%
    18:00 +22°C° 0.1 mm 6 mps 736 mmHg 89%
    19:00 +21°C° 0.1 mm 5 mps 736 mmHg 91%
    20:00 +21°C° 0.2 mm 5 mps 736 mmHg 92%
    21:00 +21°C° 0.2 mm 5 mps 737 mmHg 93%
    22:00 +20°C° 0.2 mm 5 mps 737 mmHg 94%
    23:00 +20°C° 0.1 mm 5 mps 737 mmHg 95%

    19 July, Thursday

    Time Temperature Precipitation Wind Pressure Humidity
    00:00 +20°C° 0.1 mm 5 mps 737 mmHg 95%
    01:00 +20°C° 0.1 mm 5 mps 737 mmHg 95%
    02:00 +20°C° 0.1 mm 5 mps 738 mmHg 95%
    03:00 +19°C° 0.1 mm 5 mps 738 mmHg 95%
    04:00 +19°C° 0.1 mm 5 mps 738 mmHg 95%
    05:00 +19°C° 0 mm 4 mps 738 mmHg 94%
    06:00 +19°C° 0 mm 4 mps 738 mmHg 94%
    07:00 +19°C° 0 mm 4 mps 739 mmHg 93%
    08:00 +20°C° 0 mm 4 mps 739 mmHg 91%
    09:00 +20°C° 0 mm 5 mps 739 mmHg 90%
    10:00 +20°C° 0 mm 5 mps 739 mmHg 88%
    11:00 +21°C° 0 mm 5 mps 739 mmHg 86%
    12:00 +21°C° 0 mm 5 mps 739 mmHg 84%
    13:00 +22°C° 0 mm 5 mps 739 mmHg 82%
    14:00 +22°C° 0 mm 5 mps 739 mmHg 81%
    15:00 +22°C° 0 mm 5 mps 739 mmHg 81%
    16:00 +22°C° 0 mm 5 mps 739 mmHg 80%
    17:00 +22°C° 0 mm 4 mps 739 mmHg 82%
    18:00 +21°C° 0 mm 4 mps 739 mmHg 84%
    19:00 +21°C° 0 mm 3 mps 739 mmHg 86%
    20:00 +20°C° 0 mm 3 mps 739 mmHg 89%
    21:00 +19°C° 0 mm 3 mps 739 mmHg 92%
    22:00 +18°C° 0 mm 3 mps 739 mmHg 95%
    23:00 +18°C° 0 mm 3 mps 739 mmHg 96%

    20 July, Friday

    Time Temperature Precipitation Wind Pressure Humidity
    00:00 +18°C° 0 mm 3 mps 739 mmHg 97%
    01:00 +18°C° 0 mm 3 mps 739 mmHg 97%
    02:00 +18°C° 0 mm 3 mps 739 mmHg 97%
    03:00 +18°C° 0 mm 3 mps 739 mmHg 98%
    04:00 +18°C° 0 mm 3 mps 739 mmHg 98%
    05:00 +18°C° 0 mm 3 mps 740 mmHg 96%
    06:00 +19°C° 0 mm 3 mps 740 mmHg 94%
    07:00 +19°C° 0 mm 3 mps 740 mmHg 92%
    08:00 +20°C° 0 mm 3 mps 740 mmHg 88%
    09:00 +21°C° 0 mm 3 mps 740 mmHg 83%
    10:00 +22°C° 0 mm 3 mps 740 mmHg 79%
    11:00 +24°C° 0.3 mm 3 mps 740 mmHg 76%
    12:00 +25°C° 0.3 mm 3 mps 740 mmHg 73%
    13:00 +26°C° 0.3 mm 3 mps 739 mmHg 69%
    14:00 +26°C° 0.3 mm 3 mps 739 mmHg 68%
    15:00 +27°C° 0.3 mm 3 mps 739 mmHg 67%
    16:00 +27°C° 0.3 mm 3 mps 739 mmHg 65%
    17:00 +26°C° 0.1 mm 3 mps 739 mmHg 70%
    18:00 +25°C° 0.1 mm 2 mps 739 mmHg 75%
    19:00 +24°C° 0.1 mm 1 mps 739 mmHg 79%
    20:00 +23°C° 0 mm 1 mps 739 mmHg 82%
    21:00 +22°C° 0 mm 1 mps 739 mmHg 85%
    22:00 +21°C° 0 mm 1 mps 740 mmHg 88%
    23:00 +21°C° 0 mm 1 mps 740 mmHg 89%

    21 July, Saturday

    Time Temperature Precipitation Wind Pressure Humidity
    00:00 +20°C° 0 mm 1 mps 740 mmHg 90%
    01:00 +20°C° 0 mm 1 mps 740 mmHg 91%
    02:00 +20°C° 0 mm 1 mps 740 mmHg 92%
    03:00 +19°C° 0 mm 1 mps 739 mmHg 92%
    04:00 +19°C° 0 mm 1 mps 739 mmHg 93%
    05:00 +21°C° 0 mm 1 mps 740 mmHg 88%
    06:00 +22°C° 0 mm 1 mps 740 mmHg 83%
    07:00 +24°C° 0 mm 1 mps 740 mmHg 78%
    08:00 +25°C° 0.1 mm 1 mps 740 mmHg 72%
    09:00 +26°C° 0.1 mm 1 mps 740 mmHg 67%
    10:00 +27°C° 0.1 mm 1 mps 740 mmHg 61%
    11:00 +28°C° 0.1 mm 1 mps 740 mmHg 58%
    12:00 +29°C° 0.1 mm 1 mps 740 mmHg 56%
    13:00 +30°C° 0.1 mm 1 mps 739 mmHg 53%
    14:00 +29°C° 0.3 mm 1 mps 739 mmHg 54%
    15:00 +29°C° 0.3 mm 1 mps 739 mmHg 56%
    16:00 +29°C° 0.3 mm 1 mps 739 mmHg 58%
    17:00 +27°C° 0.5 mm 1 mps 739 mmHg 64%
    18:00 +26°C° 0.5 mm 1 mps 739 mmHg 71%
    19:00 +25°C° 0.5 mm 1 mps 739 mmHg 77%
    20:00 +24°C° 0.2 mm 2 mps 739 mmHg 80%
    21:00 +23°C° 0.2 mm 2 mps 739 mmHg 82%
    22:00 +21°C° 0.2 mm 2 mps 739 mmHg 85%
    23:00 +21°C° 0.3 mm 2 mps 739 mmHg 86%
    Show more